Regional Weather Roundup
Issued by NWS Goodland, KS

Home | Current Version | Previous Version | Graphics & Text | Print | Product List | Glossary On
Versions: 1 2 3 4 5 6 7 8 9 10 11 12 13 14 15 16 17 18 19 20 21 22 23 24 25 26 27 28 29 30 31 32 33 34 35 36 37 38 39 40 41 42 43 44 45 46 47 48 49 50
000
ASUS43 KGLD 062008
RWRGLD

GOODLAND FORECAST AREA HOURLY WEATHER ROUNDUP
NATIONAL WEATHER SERVICE GOODLAND KS
200 PM MDT MON JUL 06 2015

...OFFICIAL OBSERVATIONS...

CITY           SKY/WX    TMP DP  RH WIND       PRES   REMARKS
GOODLAND KS    CLOUDY    68  58  70 N20       30.17R
HILL CITY KS   CLOUDY    72  63  73 N18G30    30.05R
IMPERIAL NEB   CLOUDY    75  55  49 NE13G22   30.16S
MCCOOK NEB     CLOUDY    74  60  61 N20       30.10S HAZE
AKRON CO       CLOUDY    65  54  67 N14       30.26R HAZE
BURLINGTON CO  CLOUDY    64  57  78 N18G25    30.21R
LIMON CO       CLOUDY    61  55  81 N14G22    30.28S
$$

...UNOFFICIAL OBSERVATIONS...

CITY           SKY/WX    TMP DP  RH WIND       PRES   REMARKS
COLBY KS       CLOUDY    72  63  73 N21       30.14S
GOVE KS          N/A     71  32  23 MISG        N/A
NORTON KS      CLOUDY    73  57  56 N22       30.05F
SHARON SPRINGS   N/A     68  62  79 N14G21      N/A
KIT CARSON CO    N/A     67  58  73 MISG        N/A
YUMA CO          N/A     69  55  62 NE12        N/A
$$



USA.gov is the U.S. government's official web portal to all federal, state and local government web resources and services.